[[{"header":{"parameterUnit":"m.s-1","parameterCategory":1,"la1":30.2991,"la2":30.254,"lo1":-89.0895,"lo2":-89.0444,"dy":0.0017,"dx":0.0017,"nx":28,"ny":28,"refTime":"2023-09-18T09:00:00:Z","depth":0,"parameterNumber":2,"parameterNumberName":"U-component_of_WINDS"},"data":[0,0,0,0,0,0,0,0,0,0,0,0,0,0,0,0,0,0,0,0,0,0,0,0,0,0,0,0,0,0,0,0,0,0,0,0,0,0,0,0,0,0,0,0,0,0,0,0,0,0,0,0,0,0,0,0,0,0,-3.7788,-3.779,0,-3.7902,-3.7904,-3.7905,-3.7894,-3.7892,-3.7891,-3.7889,-3.7997,-3.8002,-3.8006,0,0,0,0,0,0,0,0,0,0,0,0,0,-3.7555,-3.756,-3.7788,-3.779,-3.7791,-3.7902,-3.7904,-3.7905,-3.7894,-3.7892,-3.789,-3.7888,-3.7996,-3.8001,-3.8007,0,0,0,0,0,0,0,0,0,0,0,0,0,-3.7661,-3.7561,-3.7788,-3.7799,-3.7802,-3.7902,-3.7904,-3.7906,-3.7895,-3.7892,-3.789,-3.7887,-3.7994,-3.8001,-3.8007,-3.8101,0,0,-3.8028,-3.8031,0,0,0,0,0,0,0,0,-3.7655,-3.767,-3.7796,-3.7799,-3.7801,-3.7882,-3.7861,-3.7971,-3.7895,-3.7859,-3.7889,-3.7886,-3.796,-3.797,-3.7997,-3.8106,-3.8111,-3.8029,-3.8033,-3.8036,-3.8038,0,0,0,0,0,0,0,-3.7648,-3.7665,-3.7833,-3.7798,-3.7801,-3.7797,-3.7809,-3.7882,-3.7923,-3.7862,-3.7862,-3.7876,-3.7961,-3.799,-3.7999,-3.8112,-3.8028,-3.8034,-3.8039,-3.8041,-3.8305,-3.8308,0,0,0,0,0,0,-3.7639,-3.7659,-3.7829,-3.7837,-3.7721,-3.7803,-3.7817,-3.7858,-3.7922,-3.7929,-3.7878,-3.7875,-3.798,-3.7991,-3.8003,-3.8116,-3.8036,-3.8042,-3.8046,-3.8302,-3.8305,-3.8309,0,0,0,0,0,0,-3.7634,-3.7654,-3.7825,-3.7748,-3.7769,-3.781,-3.7857,-3.7862,-3.7891,-3.7934,-3.794,-3.79,-3.7978,-3.7993,-3.8077,-3.8119,-3.8045,-3.8051,-3.8298,-3.8303,-3.8307,-3.8343,0,0,0,0,0,0,-3.7628,-3.7653,-3.769,-3.7749,-3.7773,-3.7899,-3.7859,-3.7866,-3.7903,-3.79,-3.7957,-3.7963,-3.7977,-3.8067,-3.8084,-3.8127,-3.8056,-3.8295,-3.83,-3.8306,-3.8338,-3.8348,-3.8357,0,0,0,0,0,-3.7619,-3.7694,-3.7692,-3.7712,-3.7821,-3.7902,-3.7915,-3.7932,-3.7907,-3.7943,-3.7972,-3.7961,-3.8113,-3.8076,-3.8095,-3.8141,-3.8292,-3.8299,-3.8305,-3.8334,-3.8346,-3.8356,0,0,0,0,0,0,-3.7635,-3.7701,-3.77,-3.7796,-3.7844,-3.79,-3.7946,-3.7945,-3.7998,-3.7993,-3.801,-3.8022,-3.8107,-3.8133,-3.809,-3.8235,-3.8199,-3.821,-3.8214,-3.8226,-3.8235,-3.8225,-3.8062,0,0,0,0,0,-3.765,-3.7713,-3.7767,-3.7846,-3.7871,-3.7905,-3.794,-3.795,-3.7999,-3.8018,-3.8052,-3.8098,-3.8156,-3.8193,-3.8249,-3.8344,-3.8354,-3.8385,-3.8394,-3.8401,-3.8409,-3.846,-3.8473,-3.833,-3.833,-3.833,0,0,-3.768,-3.7725,-3.7762,-3.785,-3.7888,-3.795,-3.7921,-3.7988,-3.8033,-3.8027,-3.8108,-3.8136,-3.8188,-3.8278,-3.8319,-3.8302,-3.8452,-3.841,-3.8415,-3.8419,-3.8468,-3.8482,-3.8494,-3.8335,-3.8334,-3.8333,0,0,-3.7767,-3.7809,-3.7879,-3.7919,-3.7979,-3.8002,-3.8019,-3.8076,-3.8095,-3.8178,-3.8175,-3.8229,-3.8329,-3.8366,-3.8398,-3.8503,-3.8495,-3.8521,-3.8567,-3.8617,-3.8628,-3.8638,-3.8674,-3.8687,-3.853,-3.853,-3.853,0,-3.7797,-3.7892,-3.7915,-3.7983,-3.8021,-3.8023,-3.8093,-3.813,-3.8203,-3.8229,-3.821,-3.8336,-3.8372,-3.847,-3.8496,-3.8523,-3.8541,-3.8512,-3.8626,-3.8636,-3.8645,-3.8679,-3.8693,-3.8532,-3.8532,-3.8532,-3.8531,0,-3.7925,-3.7992,-3.8041,-3.8116,-3.816,-3.8229,-3.826,-3.8301,-3.8309,-3.8333,-3.8418,-3.8461,-3.8525,-3.8551,-3.8556,-3.865,-3.8637,-3.8622,-3.8585,-3.8661,-3.8693,-3.8707,-3.8536,-3.8535,-3.8534,-3.8534,0,0,-3.8019,-3.8109,-3.8127,-3.8161,-3.8228,-3.8279,-3.8348,-3.8415,-3.8449,-3.8501,-3.8557,-3.8644,-3.8631,-3.8668,-3.8679,-3.8723,-3.8802,-3.8702,-3.8704,-3.8717,-3.8905,-3.8914,-3.8928,-3.8799,-3.8802,-3.8804,-3.89,0,-3.8111,-3.8236,-3.826,-3.8367,-3.8428,-3.8433,-3.8493,-3.854,-3.8566,-3.8619,-3.8647,-3.8707,-3.8687,-3.8709,-3.8754,-3.8783,-3.8839,-3.8777,-3.8848,-3.8851,-3.8832,-3.8946,-3.8954,-3.9043,-3.8913,-3.8915,-3.8917,0,-3.8233,-3.8291,-3.8406,-3.8467,-3.8493,-3.8547,-3.861,-3.8663,-3.8717,-3.8732,-3.8775,-3.8782,-3.8852,-3.8816,-3.8912,-3.8869,-3.8901,-3.892,-3.8924,-3.8927,-3.8885,-3.8949,-3.9071,-3.9083,-3.8937,-3.8935,-3.8934,0,-3.8287,-3.8395,-3.8477,-3.8507,-3.8581,-3.8618,-3.865,-3.8702,-3.8741,-3.8796,-3.8821,-3.8883,-3.8916,-3.8963,-3.8985,-3.8957,-3.9079,-3.9045,-3.9091,-3.9091,-3.9113,-3.911,-3.9238,-3.9139,-3.9139,-3.9139,-3.9139,0,-3.8385,-3.8454,-3.8503,-3.8553,-3.8631,-3.8658,-3.8733,-3.8764,-3.8811,-3.8865,-3.8874,-3.8924,-3.8953,-3.9008,-3.9027,-3.9102,-3.9118,-3.913,-3.9133,-3.9127,-3.9125,-3.9145,-3.9138,-3.9143,-3.9142,-3.9141,-3.914,0,-3.8456,-3.8493,-3.8582,-3.8647,-3.8665,-3.8719,-3.8773,-3.8821,-3.8849,-3.8918,-3.8936,-3.8978,-3.9043,-3.9073,-3.9152,-3.9164,-3.925,-3.925,-3.9232,-3.9232,-3.9276,-3.927,-3.9418,-3.9438,-3.9329,-3.933,-3.9331,0,-3.8514,-3.8568,-3.864,-3.8679,-3.8713,-3.8775,-3.8816,-3.8846,-3.8887,-3.8954,-3.8994,-3.9061,-3.9114,-3.9218,-3.9254,-3.9315,-3.9315,-3.9363,-3.9324,-3.9316,-3.9312,-3.9308,-3.9312,-3.9368,-3.937,-3.937,-3.9371,0,-3.8612,-3.8628,-3.8688,-3.8756,-3.8805,-3.8859,-3.8911,-3.8942,-3.898,-3.9026,-3.9095,-3.9137,-3.9221,-3.9285,-3.935,-3.938,-3.9381,-3.9384,-3.9398,-3.939,-3.9376,-3.9381,-3.9248,-3.9379,-3.9378,-3.9378,-3.9377,-3.9377,-3.8676,-3.8724,-3.8783,-3.885,-3.8894,-3.8943,-3.8992,-3.9028,-3.9086,-3.9158,-3.9172,-3.9245,-3.9298,-3.9385,-3.9418,-3.9474,-3.9462,-3.9482,-3.9486,-3.949,-3.9491,-3.9371,-3.9486,-3.9486,-3.9486,-3.9485,-3.9485,0,-3.8772,-3.8811,-3.8873,-3.8948,-3.9001,-3.9003,-3.9061,-3.9104,-3.9169,-3.922,-3.9275,-3.9353,-3.9417,-3.9461,-3.9525,-3.9561,-3.9563,-3.9577,-3.9572,-3.9579,-3.9499,-3.948,-3.9574,-3.9574,-3.9574,-3.9574,-3.9574,-3.9574,-3.8827,-3.8909,-3.8933,-3.9036,-3.9074,-3.9148,-3.9181,-3.9226,-3.9267,-3.9356,-3.941,-3.944,-3.9487,-3.9556,-3.9614,-3.9625,-3.9647,-3.9661,-3.967,-3.9594,-3.9584,-3.9575,-3.9557,-3.9666,-3.9666,-3.9745,-3.9746,-3.9746]},{"header":{"parameterUnit":"m.s-1","parameterCategory":1,"la1":30.2991,"la2":30.254,"lo1":-89.0895,"lo2":-89.0444,"dy":0.0017,"dx":0.0017,"nx":28,"ny":28,"refTime":"2023-09-18T09:00:00:Z","depth":0,"parameterNumber":3,"parameterNumberName":"V-component_of_WINDS"},"data":[0,0,0,0,0,0,0,0,0,0,0,0,0,0,0,0,0,0,0,0,0,0,0,0,0,0,0,0,0,0,0,0,0,0,0,0,0,0,0,0,0,0,0,0,0,0,0,0,0,0,0,0,0,0,0,0,0,0,-1.3445,-1.3445,0,-1.3426,-1.3426,-1.3426,-1.3441,-1.3442,-1.3442,-1.3443,-1.3423,-1.3421,-1.342,0,0,0,0,0,0,0,0,0,0,0,0,0,-1.3491,-1.349,-1.3445,-1.3445,-1.3445,-1.3427,-1.3426,-1.3426,-1.3441,-1.3442,-1.3443,-1.3443,-1.3423,-1.3422,-1.342,0,0,0,0,0,0,0,0,0,0,0,0,0,-1.3472,-1.349,-1.3445,-1.345,-1.345,-1.3427,-1.3426,-1.3426,-1.3441,-1.3442,-1.3443,-1.3444,-1.3423,-1.3422,-1.342,-1.339,0,0,-1.3415,-1.3414,0,0,0,0,0,0,0,0,-1.3473,-1.347,-1.345,-1.345,-1.345,-1.3437,-1.3435,-1.3414,-1.3441,-1.3444,-1.3443,-1.3444,-1.3427,-1.3425,-1.3419,-1.3389,-1.3388,-1.3415,-1.3414,-1.3413,-1.3412,0,0,0,0,0,0,0,-1.3474,-1.3471,-1.3438,-1.3449,-1.3449,-1.3452,-1.345,-1.3431,-1.343,-1.3444,-1.3445,-1.3443,-1.3427,-1.3421,-1.3419,-1.3388,-1.3415,-1.3413,-1.3412,-1.3411,-1.3329,-1.3328,0,0,0,0,0,0,-1.3475,-1.3472,-1.3438,-1.3437,-1.3464,-1.3451,-1.3449,-1.344,-1.3431,-1.343,-1.3442,-1.3444,-1.3423,-1.3421,-1.3418,-1.338,-1.3413,-1.3411,-1.341,-1.333,-1.3329,-1.3328,0,0,0,0,0,0,-1.3476,-1.3472,-1.3439,-1.3455,-1.3451,-1.3449,-1.3439,-1.3439,-1.3433,-1.3429,-1.3429,-1.3436,-1.3424,-1.342,-1.3396,-1.338,-1.341,-1.3409,-1.3332,-1.333,-1.3328,-1.3306,0,0,0,0,0,0,-1.3477,-1.3472,-1.3462,-1.3454,-1.345,-1.3419,-1.3438,-1.3438,-1.343,-1.3432,-1.3423,-1.3423,-1.3424,-1.3399,-1.3395,-1.3378,-1.3408,-1.3333,-1.3331,-1.3329,-1.3308,-1.3303,-1.33,0,0,0,0,0,-1.3479,-1.3457,-1.3461,-1.3457,-1.3437,-1.3418,-1.3415,-1.3418,-1.3429,-1.3418,-1.3414,-1.3423,-1.3382,-1.3396,-1.3392,-1.3374,-1.3334,-1.3332,-1.3329,-1.331,-1.3304,-1.33,0,0,0,0,0,0,-1.3463,-1.3456,-1.3461,-1.3436,-1.3427,-1.342,-1.3407,-1.3412,-1.34,-1.3402,-1.3406,-1.3404,-1.3378,-1.3374,-1.3389,-1.3343,-1.336,-1.3356,-1.3347,-1.3341,-1.3337,-1.3338,-1.3406,0,0,0,0,0,-1.3456,-1.3442,-1.3436,-1.3415,-1.341,-1.3409,-1.3401,-1.3403,-1.3394,-1.3391,-1.3386,-1.3376,-1.3361,-1.3351,-1.3337,-1.3307,-1.3304,-1.3293,-1.3289,-1.3285,-1.3282,-1.3263,-1.3257,-1.3319,-1.3319,-1.3319,0,0,-1.3442,-1.3437,-1.3428,-1.3411,-1.3405,-1.3389,-1.3406,-1.3389,-1.3376,-1.3388,-1.3365,-1.336,-1.335,-1.3322,-1.3309,-1.3318,-1.3264,-1.3282,-1.3279,-1.3278,-1.3259,-1.3254,-1.3248,-1.3318,-1.3318,-1.3318,0,0,-1.3409,-1.3404,-1.3384,-1.3377,-1.3367,-1.3366,-1.3361,-1.3353,-1.335,-1.3327,-1.3334,-1.3319,-1.3294,-1.3285,-1.3277,-1.3237,-1.3244,-1.3233,-1.3211,-1.3192,-1.3187,-1.3183,-1.3166,-1.3161,-1.3229,-1.3229,-1.3229,0,-1.3393,-1.337,-1.3373,-1.3355,-1.3346,-1.3355,-1.3334,-1.3327,-1.3313,-1.3306,-1.3315,-1.3282,-1.3275,-1.3244,-1.3234,-1.3228,-1.3221,-1.3234,-1.3188,-1.3183,-1.3179,-1.3163,-1.3158,-1.3228,-1.3228,-1.3228,-1.3228,0,-1.3349,-1.3333,-1.3318,-1.3303,-1.3293,-1.3273,-1.3272,-1.3261,-1.3264,-1.3261,-1.3236,-1.3228,-1.3211,-1.3204,-1.3207,-1.3173,-1.3178,-1.3187,-1.3204,-1.3172,-1.3157,-1.3151,-1.3226,-1.3226,-1.3227,-1.3227,0,0,-1.3306,-1.3292,-1.3286,-1.3279,-1.3267,-1.3254,-1.3233,-1.3217,-1.3206,-1.3196,-1.3177,-1.3154,-1.3162,-1.3153,-1.3155,-1.3139,-1.3104,-1.315,-1.3149,-1.314,-1.3063,-1.3054,-1.3048,-1.3109,-1.3107,-1.3107,-1.3063,0,-1.3271,-1.3236,-1.3237,-1.3204,-1.3187,-1.3195,-1.3176,-1.3166,-1.3163,-1.3147,-1.3143,-1.3126,-1.3139,-1.3133,-1.3117,-1.3112,-1.3089,-1.3115,-1.309,-1.3089,-1.3091,-1.304,-1.3033,-1.2992,-1.3057,-1.3056,-1.3056,0,-1.3225,-1.3212,-1.3177,-1.3165,-1.3158,-1.3142,-1.3126,-1.3111,-1.3099,-1.3097,-1.3086,-1.3089,-1.3067,-1.3084,-1.3052,-1.307,-1.3059,-1.3054,-1.3053,-1.305,-1.307,-1.3034,-1.2979,-1.2972,-1.3047,-1.3048,-1.3048,0,-1.3195,-1.3168,-1.3143,-1.3137,-1.3123,-1.3111,-1.3105,-1.3093,-1.3082,-1.3068,-1.306,-1.3043,-1.3033,-1.3019,-1.3017,-1.303,-1.2983,-1.3001,-1.2979,-1.2979,-1.2969,-1.2969,-1.2909,-1.2964,-1.2964,-1.2964,-1.2964,0,-1.3155,-1.3132,-1.3129,-1.3114,-1.3088,-1.3089,-1.3063,-1.3058,-1.3047,-1.3029,-1.3035,-1.3018,-1.3016,-1.2998,-1.2996,-1.2968,-1.2964,-1.2961,-1.296,-1.296,-1.296,-1.2952,-1.2955,-1.2963,-1.2963,-1.2963,-1.2964,0,-1.3116,-1.3114,-1.3086,-1.3075,-1.3071,-1.3053,-1.3042,-1.3027,-1.3023,-1.3,-1.2995,-1.2988,-1.2967,-1.2963,-1.2939,-1.2937,-1.2903,-1.2906,-1.2907,-1.2907,-1.2884,-1.2886,-1.2817,-1.2806,-1.2869,-1.2868,-1.2868,0,-1.3091,-1.3073,-1.306,-1.3048,-1.3041,-1.3023,-1.3011,-1.301,-1.2998,-1.2981,-1.2966,-1.2946,-1.2929,-1.2894,-1.2886,-1.2866,-1.2868,-1.2845,-1.2865,-1.2864,-1.2866,-1.2866,-1.2863,-1.2841,-1.284,-1.284,-1.284,0,-1.3044,-1.3043,-1.3027,-1.3009,-1.2995,-1.2981,-1.2967,-1.2957,-1.2954,-1.2939,-1.2918,-1.2904,-1.2878,-1.2856,-1.2836,-1.2828,-1.2832,-1.2833,-1.2827,-1.2825,-1.2826,-1.2823,-1.2895,-1.2835,-1.2835,-1.2836,-1.2836,-1.2836,-1.301,-1.2994,-1.2981,-1.2962,-1.2952,-1.2938,-1.2922,-1.2916,-1.2898,-1.2876,-1.2876,-1.2852,-1.2837,-1.281,-1.28,-1.278,-1.2787,-1.2778,-1.2776,-1.2773,-1.277,-1.283,-1.2776,-1.2776,-1.2777,-1.2777,-1.2777,0,-1.2963,-1.2954,-1.2936,-1.2917,-1.2901,-1.2907,-1.2891,-1.2877,-1.2856,-1.2842,-1.2825,-1.2798,-1.2776,-1.2766,-1.2744,-1.2729,-1.273,-1.2723,-1.2724,-1.2721,-1.2766,-1.2773,-1.2722,-1.2722,-1.2723,-1.2723,-1.2723,-1.2723,-1.2936,-1.2909,-1.2905,-1.2872,-1.2863,-1.2839,-1.283,-1.2817,-1.2805,-1.2775,-1.2757,-1.2751,-1.2737,-1.2714,-1.2693,-1.2691,-1.2682,-1.2673,-1.2671,-1.2713,-1.2719,-1.2724,-1.273,-1.2672,-1.2672,-1.2628,-1.2628,-1.2627]}]]